sat.trackr.live / text

‹ back to catalog

STARLINK-34730

NORAD 64938 · 2025-158G

PAYLOAD ACTIVE UNKNOWN

§ Identity

Operator
Country
US
Launch date
2025-07-27
Launch site
AFWTR
Launch vehicle
Mass (kg)
RCS (m²)

Purposes: comms

External: N2YO · Heavens-Above · Gunter

§ Orbital elements

Epoch: 2026-09-20T14:42:50.811840Z

Period
93.91 min
Inclination
97.2850°
Eccentricity
0.0001337
Mean motion
15.33448083 rev/d
Perigee alt
464.6 km
Apogee alt
466.4 km
Semi-major
6,843.7 km
B*
4.3350e-4
RAAN
121.9168°
Arg perigee
65.1667°
Mean anomaly
294.9715°
Rev number
6,472

§ Raw data

STARLINK-347301 64938U 25158G   26263.61308810  .00013947  00000+0  43350-3 0  99982 64938  97.2850 121.9168 0001337  65.1667 294.9715 15.33448083 64721

JSON: /api/v1/satellites/64938 · /tle

For live sub-satellite position, see the globe view (requires WebGL).

§ Visibility from observer

Set your observer location to see the next 7 days of passes ≥ 10°. The values pass through the URL so the page stays shareable.

No JS? Fill the form by hand. The geolocation button needs JavaScript.